#timestamp,LO_Frequency,Hit,StdDev 
1501570815.7,286046998.6,N,1.1
1501570835.5,286046999.0,N,1.1
1501570855.3,286046998.3,N,1.0
1501570875.2,286046998.4,N,1.0
1501570895.0,286046999.3,N,0.9
1501570895.9,286046999.3,N,0.9
1501570915.8,286046998.9,N,0.8
1501570935.6,286046998.6,N,0.7
1501570955.4,286046998.3,N,0.7
1501570975.3,286046998.8,N,0.6
1501570995.1,286047001.2,N,0.7
1501571015.9,286046998.2,N,0.7
1501571035.7,286046999.3,N,0.7
1501571055.5,286046999.4,N,0.7
1501571075.4,286046996.7,P,1.1
1501571095.2,286046999.0,N,1.1
1501571115.1,286047001.1,N,1.6
1501571116.0,286047001.1,N,1.6
1501571135.8,286047001.1,N,1.6
1501571155.6,286047000.7,N,1.6
1501571175.5,286047001.1,N,1.5
1501571195.3,286047001.1,N,1.5
1501571215.2,286047000.8,N,1.4
1501571235.9,286047000.8,N,1.4
1501571255.7,286047000.9,N,1.3
1501571275.6,286047001.2,N,1.3
1501571295.4,286047000.6,N,1.2
1501571315.2,286047000.7,N,1.2
1501571335.1,286046998.1,N,1.3
1501571336.0,286046998.1,N,1.3
1501571355.8,286046998.3,N,1.4
1501571375.7,286046998.9,N,1.4
1501571395.5,286046998.4,N,1.4
1501571415.4,286047000.7,N,1.3
1501571435.2,286046998.5,N,1.3
1501571455.0,286047001.2,N,1.3
1501571455.9,286047001.2,N,1.3
1501571475.8,286047000.5,N,1.3
1501571495.6,286046998.1,N,1.3
1501571515.5,286047001.0,N,1.3
1501571535.3,286047001.1,N,1.3
1501571555.1,286047000.4,N,1.3
1501571575.9,286047000.0,N,1.3
1501571595.7,286047000.6,N,1.3
1501571615.6,286047000.8,N,1.1
1501571635.4,286046998.7,N,1.1
1501571655.2,286047000.8,N,1.1
1501571675.1,286047001.0,N,1.1
1501571676.0,286047001.0,N,1.1
1501571695.8,286047001.0,N,1.1
1501571715.7,286047001.2,N,1.1
1501571735.5,286046998.8,N,1.1
1501571755.3,286047000.7,N,1.1
1501571775.2,286047001.1,N,1.1
1501571795.0,286046999.5,N,1.1
1501571795.9,286046999.5,N,1.1
1501571815.8,286046999.0,N,1.1
1501571835.6,286046999.0,N,1.1
1501571855.4,286046996.5,P,1.7
1501571875.3,286046998.7,N,1.4
1501571895.1,286046998.8,N,1.2
1501571915.9,286046998.6,N,1.1
1501571935.7,286047000.8,N,1.3
1501571955.5,286047000.7,N,1.4
1501571975.4,286047001.2,N,1.5
1501571995.2,286047001.2,N,1.5
1501572015.0,286046998.1,N,1.5
1501572015.9,286046998.1,N,1.5
1501572035.8,286046999.4,N,1.4
1501572055.6,286046999.2,N,1.3
1501572075.5,286046999.4,N,1.3
1501572095.3,286046998.3,N,1.3
1501572115.1,286046999.6,N,1.2
1501572135.9,286046999.5,N,1.2
1501572155.7,286046998.3,N,1.2
1501572175.6,286046998.8,N,1.2
1501572195.4,286046999.2,N,1.1
1501572215.2,286046999.5,N,1.1
1501572235.1,286046999.1,N,1.1
1501572236.0,286046999.1,N,1.1
1501572255.8,286046998.8,N,1.0
1501572275.7,286046999.3,N,1.0
1501572295.5,286046996.6,P,1.3
1501572315.3,286046996.9,N,1.2
1501572335.2,286046996.7,N,1.1
1501572355.0,286046996.9,N,1.0
1501572355.9,286046996.9,P,0.2
1501572375.8,286047000.9,P,1.8
1501572395.6,286047000.9,N,1.9
1501572415.4,286047000.5,N,1.8
1501572435.3,286047000.3,N,1.7
1501572455.1,286047000.1,N,1.6
1501572475.9,286047000.9,N,1.6
1501572495.7,286046998.5,N,1.5
1501572515.5,286046999.2,N,1.4
1501572535.4,286046999.1,N,1.4
1501572555.2,286046999.0,N,1.3
1501572575.0,286046999.5,N,1.3
1501572576.0,286046999.5,N,1.2
1501572595.8,286046997.4,N,1.3
1501572615.6,286046996.7,N,1.4
1501572635.5,286046999.5,N,1.4
1501572655.3,286046997.2,N,1.4
1501572675.1,286046999.4,N,1.4
1501572695.9,286046995.0,P,2.0
1501572715.7,286046997.1,N,1.7
1501572735.6,286046997.4,N,1.5
1501572755.4,286046996.9,N,1.3
1501572775.2,286046997.0,N,1.2
1501572795.1,286046997.3,N,1.1
1501572796.0,286046997.3,N,1.0
1501572815.8,286046997.9,N,1.0
1501572835.7,286046997.2,N,1.0
1501572855.5,286046996.8,P,0.2
1501572875.3,286046998.5,P,0.7
1501572895.2,286046999.3,N,1.0
1501572915.0,286047000.8,N,1.4
1501572915.9,286047000.8,N,1.6
1501572935.8,286047001.2,N,1.7
1501572955.6,286047000.6,N,1.6
1501572975.4,286047001.1,N,1.6
1501572995.3,286047000.9,N,1.6
1501573015.1,286046998.2,N,1.6
1501573035.9,286046998.4,N,1.5
1501573055.7,286046999.3,N,1.5
1501573075.5,286046997.6,N,1.5
1501573095.4,286046997.8,N,1.5
1501573115.2,286046999.5,N,1.5
1501573135.1,286046996.9,N,1.5
1501573136.0,286046996.9,N,1.6
1501573155.8,286046999.5,N,1.5
1501573175.6,286046996.9,N,1.6
1501573195.5,286046997.9,N,1.5
1501573215.3,286046997.9,N,1.5
1501573235.2,286046998.0,N,1.5
1501573255.0,286046997.9,N,1.5
1501573255.9,286046997.9,N,1.4
1501573275.8,286046995.0,P,1.9
1501573295.6,286046997.8,N,1.6
1501573315.4,286046997.2,N,1.4
1501573335.3,286046997.4,N,1.2
1501573355.1,286046997.5,N,1.1
1501573375.9,286046994.9,P,1.2
1501573395.7,286047001.1,N,2.6
1501573415.5,286046998.5,N,2.2
1501573435.4,286047000.9,N,2.3
1501573455.2,286047001.1,N,2.3
1501573475.1,286047000.8,N,2.2
1501573476.0,286047000.8,N,2.2
1501573495.8,286046998.6,N,2.1
1501573515.6,286046998.8,N,2.0
1501573535.5,286046998.3,N,1.9
1501573555.3,286046998.9,N,1.8
1501573575.2,286046999.4,N,1.7
1501573595.9,286046998.9,N,1.7
1501573615.7,286046997.0,N,1.7
1501573635.6,286046999.1,N,1.7
1501573655.4,286046999.4,N,1.6
1501573675.3,286046999.1,P,0.0
1501573695.1,286047000.8,P,0.8
1501573696.0,286047000.8,N,0.9
1501573715.8,286046998.5,N,1.0
1501573735.7,286047000.8,N,1.0
1501573755.5,286046998.1,N,1.1
1501573775.3,286046998.5,N,1.1
1501573795.2,286046998.4,N,1.1
1501573815.0,286046999.2,N,1.0
1501573815.9,286046999.2,N,1.0
1501573835.8,286046998.7,N,0.9
1501573855.6,286046998.4,N,0.9
1501573875.4,286046996.5,P,1.3
1501573895.3,286046998.7,N,1.2
1501573915.1,286047000.6,N,1.5
1501573935.9,286046998.8,N,1.3
1501573955.7,286046998.2,N,1.2
1501573975.5,286046998.6,N,1.1
1501573995.4,286046999.0,N,1.1
1501574015.2,286046998.6,N,1.0
1501574035.1,286046997.0,P,0.8
1501574036.0,286046997.0,P,0.8
1501574055.8,286047000.5,N,1.4
1501574075.6,286047001.2,N,1.7
1501574095.5,286046998.5,N,1.6
1501574115.3,286046999.3,N,1.5
1501574135.2,286046999.1,N,1.4
1501574155.9,286046998.7,N,1.3
1501574175.7,286046998.1,N,1.3
1501574195.6,286047000.8,N,1.3
1501574215.4,286047001.1,N,1.4
1501574265.3,286047000.6,E,nan
1501574275.2,286047000.8,N,0.0
1501574295.0,286046999.4,P,0.7
1501574296.0,286046999.4,N,0.7
1501574315.8,286046998.1,N,1.0
1501574335.6,286047001.0,N,1.1
1501574355.5,286047000.8,N,1.0
1501574375.3,286047000.3,N,1.0
1501574395.1,286047000.9,N,1.0
